Terminal Aerodrome Forecast
Issued by NWS

Home | Current Version | Previous Version | Text Only | Print | Product List | Glossary On
Versions: 1 2 3 4 5 6 7 8 9 10 11 12 13 14 15 16 17 18 19 20 21 22 23 24 25 26 27 28 29 30 31 32 33 34 35 36 37 38 39 40 41 42 43 44 45 46 47 48 49 50
000
FTAK31 PANC 240236 AAA
TAFASN
TAF AMD
PASN 240236Z 2403/2424 08014KT P6SM BKN025
      TEMPO 2403/2406 5SM BR BKN009
     FM240600 08013KT 5SM BR BKN009
     FM241000 09012KT 3SM BR BKN004
     FM242000 08016KT P6SM SCT009 BKN025=

USA.gov is the U.S. government's official web portal to all federal, state and local government web resources and services.